Time,TemperatureF,DewpointF,PressureIn,WindDirection,WindDirectionDegrees,WindSpeedMPH,WindSpeedGustMPH,Humidity,HourlyPrecipIn,Conditions,Clouds,dailyrainin,SoftwareType,DateUTC
2013-07-20 00:02:00,68.0,61.0,29.74,West,278,0.0,0.0,77,0.00,,,0.47,,2013-07-20 05:02:00,
2013-07-20 00:12:00,68.0,61.0,29.75,West,278,0.0,2.0,78,0.00,,,0.47,,2013-07-20 05:12:00,
2013-07-20 00:22:00,68.0,61.0,29.75,West,278,0.0,2.0,78,0.00,,,0.47,,2013-07-20 05:22:00,
2013-07-20 00:32:00,68.0,61.0,29.75,West,278,0.0,2.0,78,0.00,,,0.47,,2013-07-20 05:32:00,
2013-07-20 00:52:00,67.0,60.0,29.76,West,278,0.0,1.0,79,0.00,,,0.47,,2013-07-20 05:52:00,
2013-07-20 01:01:00,67.0,60.0,29.76,West,278,0.0,1.0,79,0.00,,,0.47,,2013-07-20 06:01:00,
2013-07-20 01:11:00,66.0,59.0,29.76,SW,215,0.0,3.0,79,0.00,,,0.47,,2013-07-20 06:11:00,
2013-07-20 01:21:00,66.0,59.0,29.76,SW,224,0.0,3.0,79,0.00,,,0.47,,2013-07-20 06:21:00,
2013-07-20 01:32:00,66.0,59.0,29.76,SW,224,0.0,3.0,79,0.00,,,0.47,,2013-07-20 06:32:00,
2013-07-20 01:43:00,66.0,59.0,29.76,West,271,0.0,2.0,79,0.00,,,0.47,,2013-07-20 06:43:00,
2013-07-20 01:52:00,66.0,59.0,29.77,SW,218,0.0,2.0,78,0.00,,,0.47,,2013-07-20 06:52:00,
2013-07-20 02:01:00,66.0,59.0,29.77,SW,218,0.0,2.0,78,0.00,,,0.47,,2013-07-20 07:01:00,
2013-07-20 02:12:00,65.0,59.0,29.78,SSW,210,0.0,2.0,81,0.00,,,0.47,,2013-07-20 07:12:00,
2013-07-20 02:22:00,65.0,59.0,29.78,SSW,210,0.0,2.0,82,0.00,,,0.28,,2013-07-20 07:22:00,
2013-07-20 02:33:00,65.0,59.0,29.78,SSW,210,0.0,2.0,82,0.00,,,0.28,,2013-07-20 07:33:00,
2013-07-20 02:44:00,64.0,58.0,29.79,ESE,111,0.0,3.0,81,0.00,,,0.28,,2013-07-20 07:44:00,
2013-07-20 02:53:00,64.0,58.0,29.80,West,269,0.0,2.0,80,0.00,,,0.28,,2013-07-20 07:53:00,
2013-07-20 03:01:00,64.0,58.0,29.80,West,269,0.0,2.0,80,0.00,,,0.28,,2013-07-20 08:01:00,
2013-07-20 03:11:00,64.0,57.0,29.80,West,269,0.0,1.0,79,0.00,,,0.28,,2013-07-20 08:11:00,
2013-07-20 03:22:00,64.0,58.0,29.80,West,269,0.0,0.0,80,0.00,,,0.00,,2013-07-20 08:22:00,
2013-07-20 03:32:00,64.0,58.0,29.80,West,269,0.0,0.0,80,0.00,,,0.00,,2013-07-20 08:32:00,
2013-07-20 03:44:00,64.0,58.0,29.81,West,269,0.0,1.0,80,0.00,,,0.00,,2013-07-20 08:44:00,
2013-07-20 03:52:00,64.0,57.0,29.81,NE,55,0.0,2.0,78,0.00,,,0.00,,2013-07-20 08:52:00,
2013-07-20 04:02:00,64.0,57.0,29.81,NE,55,0.0,2.0,78,0.00,,,0.00,,2013-07-20 09:02:00,
2013-07-20 04:11:00,63.0,57.0,29.82,NE,55,0.0,0.0,80,0.00,,,0.00,,2013-07-20 09:11:00,
2013-07-20 04:22:00,62.0,56.0,29.82,NE,55,0.0,1.0,80,0.00,,,0.00,,2013-07-20 09:22:00,
2013-07-20 04:33:00,62.0,56.0,29.82,NE,55,0.0,1.0,80,0.00,,,0.00,,2013-07-20 09:33:00,
2013-07-20 04:43:00,62.0,55.0,29.82,NE,36,0.0,0.0,79,0.00,,,0.00,,2013-07-20 09:43:00,
2013-07-20 04:53:00,61.0,55.0,29.82,NE,36,0.0,1.0,82,0.00,,,0.00,,2013-07-20 09:53:00,
2013-07-20 05:01:00,61.0,55.0,29.82,NE,36,0.0,1.0,82,0.00,,,0.00,,2013-07-20 10:01:00,
2013-07-20 05:11:00,61.0,55.0,29.83,NE,36,0.0,2.0,81,0.00,,,0.00,,2013-07-20 10:11:00,
2013-07-20 05:22:00,61.0,55.0,29.83,NE,36,0.0,2.0,80,0.00,,,0.00,,2013-07-20 10:22:00,
2013-07-20 05:32:00,61.0,55.0,29.83,NE,36,0.0,2.0,80,0.00,,,0.00,,2013-07-20 10:32:00,
2013-07-20 05:42:00,61.0,55.0,29.84,NE,36,0.0,3.0,81,0.00,,,0.00,,2013-07-20 10:42:00,
2013-07-20 05:52:00,61.0,55.0,29.85,NE,36,0.0,2.0,80,0.00,,,0.00,,2013-07-20 10:52:00,
2013-07-20 06:01:00,61.0,55.0,29.85,NE,36,0.0,2.0,80,0.00,,,0.00,,2013-07-20 11:01:00,
2013-07-20 06:11:00,61.0,54.0,29.85,NE,44,0.0,3.0,77,0.00,,,0.00,,2013-07-20 11:11:00,
2013-07-20 06:22:00,61.0,54.0,29.85,NNE,20,0.0,3.0,78,0.00,,,0.00,,2013-07-20 11:22:00,
2013-07-20 06:32:00,61.0,54.0,29.85,NNE,20,0.0,3.0,78,0.00,,,0.00,,2013-07-20 11:32:00,
2013-07-20 06:43:00,61.0,54.0,29.87,North,5,2.0,5.0,79,0.00,,,0.00,,2013-07-20 11:43:00,
2013-07-20 06:52:00,61.0,54.0,29.87,NE,48,1.0,3.0,79,0.00,,,0.00,,2013-07-20 11:52:00,
2013-07-20 07:01:00,61.0,54.0,29.87,NE,48,1.0,3.0,79,0.00,,,0.00,,2013-07-20 12:01:00,
2013-07-20 07:11:00,61.0,53.0,29.88,NE,41,2.0,7.0,76,0.00,,,0.00,,2013-07-20 12:11:00,
2013-07-20 07:22:00,61.0,52.0,29.89,NE,44,1.0,7.0,73,0.00,,,0.00,,2013-07-20 12:22:00,
2013-07-20 07:32:00,61.0,52.0,29.89,NE,44,1.0,7.0,73,0.00,,,0.00,,2013-07-20 12:32:00,
2013-07-20 07:52:00,61.0,52.0,29.89,NE,38,3.0,5.0,71,0.00,,,0.00,,2013-07-20 12:52:00,
2013-07-20 08:01:00,61.0,52.0,29.89,NE,38,3.0,5.0,71,0.00,,,0.00,,2013-07-20 13:01:00,
2013-07-20 08:11:00,62.0,53.0,29.89,ENE,76,0.0,7.0,72,0.00,,,0.00,,2013-07-20 13:11:00,
2013-07-20 08:22:00,62.0,52.0,29.91,East,94,1.0,5.0,70,0.00,,,0.00,,2013-07-20 13:22:00,
2013-07-20 08:32:00,62.0,52.0,29.91,East,94,1.0,5.0,70,0.00,,,0.00,,2013-07-20 13:32:00,
2013-07-20 08:43:00,63.0,52.0,29.92,NE,52,1.0,4.0,68,0.00,,,0.00,,2013-07-20 13:43:00,
2013-07-20 08:53:00,63.0,51.0,29.93,NNE,32,1.0,8.0,64,0.00,,,0.00,,2013-07-20 13:53:00,
2013-07-20 09:02:00,63.0,51.0,29.93,NNE,32,1.0,8.0,64,0.00,,,0.00,,2013-07-20 14:02:00,
2013-07-20 09:11:00,64.0,51.0,29.94,NE,55,1.0,5.0,63,0.00,,,0.00,,2013-07-20 14:11:00,
2013-07-20 09:22:00,64.0,50.0,29.94,ENE,69,1.0,8.0,60,0.00,,,0.00,,2013-07-20 14:22:00,
2013-07-20 09:32:00,64.0,50.0,29.94,ENE,69,1.0,8.0,60,0.00,,,0.00,,2013-07-20 14:32:00,
2013-07-20 09:43:00,64.0,49.0,29.95,NE,40,1.0,6.0,59,0.00,,,0.00,,2013-07-20 14:43:00,
2013-07-20 10:01:00,64.0,50.0,29.95,ESE,115,2.0,8.0,60,0.00,,,0.00,,2013-07-20 15:01:00,
2013-07-20 10:11:00,64.0,50.0,29.95,NNE,19,2.0,7.0,60,0.00,,,0.00,,2013-07-20 15:11:00,
2013-07-20 10:22:00,65.0,52.0,29.95,NNE,13,1.0,7.0,62,0.00,,,0.00,,2013-07-20 15:22:00,
2013-07-20 10:33:00,65.0,52.0,29.95,NNE,13,1.0,7.0,62,0.00,,,0.00,,2013-07-20 15:33:00,
2013-07-20 10:44:00,64.0,50.0,29.96,NE,46,1.0,5.0,60,0.00,,,0.00,,2013-07-20 15:44:00,
2013-07-20 10:53:00,65.0,50.0,29.96,East,86,1.0,6.0,59,0.00,,,0.00,,2013-07-20 15:53:00,
2013-07-20 11:01:00,65.0,50.0,29.96,East,86,1.0,6.0,59,0.00,,,0.00,,2013-07-20 16:01:00,
2013-07-20 11:11:00,65.0,51.0,29.96,NNW,338,2.0,5.0,61,0.00,,,0.00,,2013-07-20 16:11:00,
2013-07-20 11:32:00,66.0,52.0,29.96,North,355,2.0,6.0,61,0.00,,,0.00,,2013-07-20 16:32:00,
2013-07-20 11:43:00,65.0,52.0,29.97,NNE,33,1.0,7.0,62,0.00,,,0.00,,2013-07-20 16:43:00,
2013-07-20 12:02:00,65.0,52.0,29.97,NNE,30,1.0,6.0,62,0.00,,,0.00,,2013-07-20 17:02:00,
2013-07-20 12:11:00,65.0,51.0,29.97,NE,55,2.0,5.0,61,0.00,,,0.00,,2013-07-20 17:11:00,
2013-07-20 12:32:00,65.0,50.0,29.97,NE,44,1.0,4.0,59,0.00,,,0.00,,2013-07-20 17:32:00,
2013-07-20 12:43:00,66.0,51.0,29.96,NE,38,2.0,4.0,59,0.00,,,0.00,,2013-07-20 17:43:00,
2013-07-20 13:01:00,66.0,50.0,29.97,NE,34,3.0,6.0,57,0.00,,,0.00,,2013-07-20 18:01:00,
2013-07-20 13:11:00,65.0,48.0,29.97,NNE,20,3.0,6.0,55,0.00,,,0.00,,2013-07-20 18:11:00,
2013-07-20 13:24:00,65.0,48.0,29.97,NNE,20,3.0,6.0,55,0.00,,,0.00,,2013-07-20 18:24:00,
2013-07-20 13:45:00,66.0,49.0,29.98,NNW,347,2.0,7.0,55,0.00,,,0.00,,2013-07-20 18:45:00,
2013-07-20 14:05:00,65.0,51.0,29.98,NW,323,0.0,4.0,61,0.00,,,0.00,,2013-07-20 19:05:00,
2013-07-20 14:14:00,66.0,50.0,29.98,ENE,68,2.0,5.0,57,0.00,,,0.00,,2013-07-20 19:14:00,
2013-07-20 14:25:00,66.0,50.0,29.98,ENE,68,2.0,5.0,57,0.00,,,0.00,,2013-07-20 19:25:00,
2013-07-20 14:35:00,66.0,51.0,29.98,NNE,30,0.0,4.0,59,0.00,,,0.00,,2013-07-20 19:35:00,
2013-07-20 14:43:00,66.0,49.0,29.97,SSE,150,2.0,5.0,54,0.00,,,0.00,,2013-07-20 19:43:00,
2013-07-20 15:06:00,65.0,48.0,29.98,NE,38,2.0,5.0,54,0.00,,,0.00,,2013-07-20 20:06:00,
2013-07-20 15:14:00,66.0,50.0,29.97,ENE,71,0.0,4.0,56,0.00,,,0.00,,2013-07-20 20:14:00,
2013-07-20 15:23:00,66.0,50.0,29.97,ENE,71,0.0,4.0,56,0.00,,,0.00,,2013-07-20 20:23:00,
2013-07-20 15:33:00,67.0,51.0,29.97,South,171,1.0,5.0,57,0.00,,,0.00,,2013-07-20 20:33:00,
2013-07-20 15:45:00,67.0,50.0,29.98,ENE,64,1.0,3.0,54,0.00,,,0.00,,2013-07-20 20:45:00,
2013-07-20 16:34:00,68.0,50.0,29.97,ENE,77,2.0,5.0,52,0.00,,,0.00,,2013-07-20 21:34:00,
2013-07-20 16:44:00,68.0,52.0,29.96,NNE,13,1.0,4.0,56,0.00,,,0.00,,2013-07-20 21:44:00,
2013-07-20 16:55:00,68.0,52.0,29.96,NNE,13,1.0,4.0,56,0.00,,,0.00,,2013-07-20 21:55:00,
2013-07-20 17:05:00,68.0,53.0,29.96,East,101,0.0,5.0,59,0.00,,,0.00,,2013-07-20 22:05:00,
2013-07-20 17:15:00,67.0,52.0,29.95,NE,39,1.0,4.0,59,0.00,,,0.00,,2013-07-20 22:15:00,
2013-07-20 17:25:00,67.0,52.0,29.95,NE,39,1.0,4.0,59,0.00,,,0.00,,2013-07-20 22:25:00,
2013-07-20 17:34:00,68.0,51.0,29.95,North,5,1.0,5.0,55,0.00,,,0.00,,2013-07-20 22:34:00,
2013-07-20 17:47:00,67.0,49.0,29.95,NE,56,1.0,6.0,53,0.00,,,0.00,,2013-07-20 22:47:00,
2013-07-20 17:54:00,67.0,49.0,29.95,NE,56,1.0,6.0,53,0.00,,,0.00,,2013-07-20 22:54:00,
2013-07-20 18:04:00,67.0,49.0,29.95,NE,43,1.0,3.0,53,0.00,,,0.00,,2013-07-20 23:04:00,
2013-07-20 18:27:00,66.0,48.0,29.95,North,5,2.0,7.0,53,0.00,,,0.00,,2013-07-20 23:27:00,
2013-07-20 18:36:00,66.0,49.0,29.96,NE,47,1.0,4.0,54,0.00,,,0.00,,2013-07-20 23:36:00,
2013-07-20 18:44:00,65.0,48.0,29.96,NE,49,1.0,5.0,54,0.00,,,0.00,,2013-07-20 23:44:00,
2013-07-20 18:55:00,65.0,48.0,29.96,NE,49,1.0,5.0,54,0.00,,,0.00,,2013-07-20 23:55:00,
2013-07-20 19:06:00,65.0,47.0,29.96,NE,39,2.0,5.0,53,0.00,,,0.00,,2013-07-21 00:06:00,
2013-07-20 19:23:00,65.0,49.0,29.96,ENE,67,0.0,5.0,56,0.00,,,0.00,,2013-07-21 00:23:00,
2013-07-20 19:44:00,63.0,47.0,29.96,NE,35,1.0,3.0,56,0.00,,,0.00,,2013-07-21 00:44:00,
2013-07-20 19:55:00,63.0,47.0,29.96,NE,35,1.0,3.0,56,0.00,,,0.00,,2013-07-21 00:55:00,
2013-07-20 20:06:00,63.0,48.0,29.96,NNE,13,0.0,1.0,57,0.00,,,0.00,,2013-07-21 01:06:00,
2013-07-20 20:12:00,62.0,47.0,29.96,ENE,67,0.0,3.0,58,0.00,,,0.00,,2013-07-21 01:12:00,
2013-07-20 20:36:00,61.0,47.0,29.96,NE,56,0.0,3.0,61,0.00,,,0.00,,2013-07-21 01:36:00,
2013-07-20 20:45:00,-999.0,-99.9,29.96,NE,41,0.0,2.0,-999,-99.99,,,-99.99,,2013-07-21 01:45:00,
2013-07-20 20:56:00,61.0,47.0,29.96,NE,41,0.0,2.0,61,0.00,,,0.00,,2013-07-21 01:56:00,
2013-07-20 21:05:00,60.0,47.0,29.97,NE,41,0.0,1.0,63,0.00,,,0.00,,2013-07-21 02:05:00,
2013-07-20 21:16:00,59.0,48.0,29.97,ENE,61,0.0,3.0,66,0.00,,,0.00,,2013-07-21 02:16:00,
2013-07-20 21:26:00,59.0,48.0,29.97,ENE,61,0.0,3.0,66,0.00,,,0.00,,2013-07-21 02:26:00,
2013-07-20 21:36:00,58.0,48.0,29.98,ENE,61,0.0,1.0,69,0.00,,,0.00,,2013-07-21 02:36:00,
2013-07-20 21:44:00,57.0,48.0,29.98,ENE,61,0.0,0.0,72,0.00,,,0.00,,2013-07-21 02:44:00,
2013-07-20 21:54:00,57.0,48.0,29.98,ENE,61,0.0,0.0,72,0.00,,,0.00,,2013-07-21 02:54:00,
2013-07-20 22:04:00,56.0,48.0,29.99,ENE,61,0.0,0.0,74,0.00,,,0.00,,2013-07-21 03:04:00,
2013-07-20 22:14:00,56.0,49.0,29.99,ENE,61,0.0,0.0,76,0.00,,,0.00,,2013-07-21 03:14:00,
2013-07-20 22:25:00,56.0,49.0,29.99,ENE,61,0.0,0.0,76,0.00,,,0.00,,2013-07-21 03:25:00,
2013-07-20 22:35:00,55.0,48.0,29.99,ENE,61,0.0,0.0,77,0.00,,,0.00,,2013-07-21 03:35:00,
2013-07-20 22:44:00,55.0,48.0,29.99,ENE,61,0.0,0.0,78,0.00,,,0.00,,2013-07-21 03:44:00,
2013-07-20 22:55:00,55.0,48.0,29.99,ENE,61,0.0,0.0,78,0.00,,,0.00,,2013-07-21 03:55:00,
2013-07-20 23:01:00,55.0,49.0,30.00,ENE,61,0.0,0.0,79,0.00,,,0.00,,2013-07-21 04:01:00,
2013-07-20 23:11:00,54.0,48.0,29.99,ENE,61,0.0,0.0,80,0.00,,,0.00,,2013-07-21 04:11:00,
2013-07-20 23:22:00,54.0,48.0,29.99,ENE,61,0.0,0.0,80,0.00,,,0.00,,2013-07-21 04:22:00,
2013-07-20 23:32:00,54.0,48.0,29.99,ENE,61,0.0,0.0,81,0.00,,,0.00,,2013-07-21 04:32:00,
2013-07-20 23:43:00,54.0,48.0,29.99,ENE,61,0.0,0.0,81,0.00,,,0.00,,2013-07-21 04:43:00,
2013-07-20 23:53:00,54.0,48.0,29.99,ENE,61,0.0,0.0,81,0.00,,,0.00,,2013-07-21 04:53:00,